When you browse on this site, cookies collect data to enhance your experience and personalize the content and advertising you see.
Visit our Privacy Policy to learn more. By continuing to use the site, you agree to this use of cookies and data.
  • In Österreich
  • Länderverzeichnis
  • Für 7 Tage
  • Wassertemperatur
  • Wetterkarte
  • News
  • Widgets
  • user-avatar
    Anmelden

    Stündliche Wetter Volostnovka

    Heute, 18 November, Montag

    Zeit Temperatur Niederschläge Wind Luftdruck Luftfeuchtigkeit
    00:00 -1°C° 0 mm 2 m/S 763 mmHg 92%
    01:00 -1°C° 0 mm 2 m/S 763 mmHg 91%
    02:00 -1°C° 0 mm 2 m/S 763 mmHg 91%
    03:00 -1°C° 0 mm 2 m/S 763 mmHg 91%
    04:00 -1°C° 0 mm 3 m/S 763 mmHg 93%
    05:00 -1°C° 0 mm 3 m/S 763 mmHg 93%
    06:00 -1°C° 0 mm 2 m/S 763 mmHg 93%
    07:00 -1°C° 0 mm 2 m/S 762 mmHg 93%
    08:00 -1°C° 0 mm 2 m/S 762 mmHg 92%
    09:00 +1°C° 0 mm 2 m/S 762 mmHg 91%
    10:00 +1°C° 0 mm 2 m/S 762 mmHg 90%
    11:00 0°C° 0 mm 3 m/S 762 mmHg 90%
    12:00 0°C° 0 mm 3 m/S 762 mmHg 90%
    13:00 0°C° 0 mm 3 m/S 762 mmHg 90%
    14:00 0°C° 0 mm 3 m/S 762 mmHg 90%
    15:00 0°C° 0 mm 3 m/S 761 mmHg 90%
    16:00 0°C° 0 mm 3 m/S 761 mmHg 91%
    17:00 0°C° 0 mm 3 m/S 761 mmHg 92%
    18:00 0°C° 0 mm 3 m/S 760 mmHg 93%
    19:00 0°C° 0 mm 3 m/S 760 mmHg 94%
    20:00 0°C° 0 mm 3 m/S 760 mmHg 94%
    21:00 -1°C° 0 mm 4 m/S 760 mmHg 95%
    22:00 -1°C° 0 mm 4 m/S 759 mmHg 95%
    23:00 -1°C° 0.1 mm 4 m/S 759 mmHg 96%

    Morgen, 19 November, Dienstag

    Zeit Temperatur Niederschläge Wind Luftdruck Luftfeuchtigkeit
    00:00 -1°C° 0.1 mm 4 m/S 758 mmHg 96%
    01:00 0°C° 0.1 mm 4 m/S 758 mmHg 96%
    02:00 0°C° 0.3 mm 4 m/S 758 mmHg 96%
    03:00 0°C° 0.3 mm 4 m/S 758 mmHg 95%
    04:00 0°C° 0.3 mm 4 m/S 758 mmHg 94%
    05:00 0°C° 0.1 mm 4 m/S 758 mmHg 94%
    06:00 +1°C° 0.1 mm 3 m/S 757 mmHg 95%
    07:00 +1°C° 0.1 mm 3 m/S 757 mmHg 95%
    08:00 +2°C° 0 mm 3 m/S 757 mmHg 94%
    09:00 +2°C° 0 mm 3 m/S 758 mmHg 94%
    10:00 +2°C° 0 mm 3 m/S 758 mmHg 94%
    11:00 +1°C° 0.1 mm 4 m/S 758 mmHg 94%
    12:00 +1°C° 0.1 mm 4 m/S 758 mmHg 94%
    13:00 +1°C° 0.1 mm 4 m/S 758 mmHg 94%
    14:00 -1°C° 0.1 mm 5 m/S 759 mmHg 92%
    15:00 -2°C° 0.1 mm 5 m/S 759 mmHg 90%
    16:00 -4°C° 0.1 mm 5 m/S 759 mmHg 88%
    17:00 -5°C° 0 mm 6 m/S 760 mmHg 86%
    18:00 -8°C° 0 mm 6 m/S 760 mmHg 83%
    19:00 -9°C° 0 mm 6 m/S 761 mmHg 80%
    20:00 -10°C° 0 mm 6 m/S 762 mmHg 78%
    21:00 -11°C° 0 mm 6 m/S 762 mmHg 76%
    22:00 -11°C° 0 mm 6 m/S 763 mmHg 74%
    23:00 -12°C° 0 mm 6 m/S 763 mmHg 72%

    übermorgen, 20 November, Mittwoch

    Zeit Temperatur Niederschläge Wind Luftdruck Luftfeuchtigkeit
    00:00 -14°C° 0 mm 7 m/S 764 mmHg 70%
    01:00 -14°C° 0 mm 7 m/S 764 mmHg 68%
    02:00 -15°C° 0 mm 6 m/S 765 mmHg 63%
    03:00 -15°C° 0 mm 6 m/S 766 mmHg 59%
    04:00 -16°C° 0 mm 6 m/S 766 mmHg 54%
    05:00 -16°C° 0 mm 6 m/S 767 mmHg 55%
    06:00 -17°C° 0 mm 6 m/S 767 mmHg 55%
    07:00 -17°C° 0 mm 6 m/S 767 mmHg 56%
    08:00 -17°C° 0 mm 6 m/S 768 mmHg 54%
    09:00 -17°C° 0 mm 6 m/S 769 mmHg 52%
    10:00 -17°C° 0 mm 6 m/S 770 mmHg 50%
    11:00 -16°C° 0 mm 6 m/S 770 mmHg 49%
    12:00 -16°C° 0 mm 6 m/S 770 mmHg 48%
    13:00 -16°C° 0 mm 6 m/S 770 mmHg 47%
    14:00 -15°C° 0 mm 5 m/S 771 mmHg 48%
    15:00 -15°C° 0 mm 5 m/S 771 mmHg 49%
    16:00 -15°C° 0 mm 5 m/S 771 mmHg 50%
    17:00 -15°C° 0 mm 5 m/S 772 mmHg 52%
    18:00 -15°C° 0 mm 5 m/S 772 mmHg 55%
    19:00 -15°C° 0 mm 4 m/S 772 mmHg 58%
    20:00 -15°C° 0 mm 4 m/S 773 mmHg 60%
    21:00 -15°C° 0 mm 4 m/S 773 mmHg 62%
    22:00 -14°C° 0 mm 3 m/S 773 mmHg 64%
    23:00 -14°C° 0 mm 3 m/S 773 mmHg 65%

    21 November, Donnerstag

    Zeit Temperatur Niederschläge Wind Luftdruck Luftfeuchtigkeit
    00:00 -14°C° 0 mm 3 m/S 774 mmHg 67%
    01:00 -15°C° 0 mm 3 m/S 774 mmHg 69%
    02:00 -14°C° 0 mm 2 m/S 774 mmHg 69%
    03:00 -14°C° 0 mm 2 m/S 774 mmHg 70%
    04:00 -14°C° 0 mm 2 m/S 774 mmHg 70%
    05:00 -14°C° 0 mm 2 m/S 774 mmHg 70%
    06:00 -14°C° 0 mm 2 m/S 774 mmHg 70%
    07:00 -14°C° 0 mm 2 m/S 774 mmHg 70%
    08:00 -13°C° 0 mm 2 m/S 774 mmHg 67%
    09:00 -12°C° 0 mm 2 m/S 774 mmHg 63%
    10:00 -12°C° 0 mm 2 m/S 775 mmHg 60%
    11:00 -10°C° 0 mm 2 m/S 774 mmHg 56%
    12:00 -9°C° 0 mm 2 m/S 774 mmHg 51%
    13:00 -8°C° 0 mm 2 m/S 774 mmHg 47%
    14:00 -8°C° 0 mm 2 m/S 774 mmHg 49%
    15:00 -8°C° 0 mm 2 m/S 773 mmHg 50%
    16:00 -8°C° 0 mm 2 m/S 773 mmHg 52%
    17:00 -9°C° 0 mm 2 m/S 773 mmHg 55%
    18:00 -9°C° 0 mm 2 m/S 773 mmHg 57%
    19:00 -12°C° 0 mm 3 m/S 772 mmHg 60%
    20:00 -12°C° 0 mm 3 m/S 772 mmHg 60%
    21:00 -12°C° 0 mm 3 m/S 772 mmHg 60%
    22:00 -12°C° 0 mm 3 m/S 772 mmHg 59%
    23:00 -12°C° 0 mm 3 m/S 772 mmHg 60%

    22 November, Freitag

    Zeit Temperatur Niederschläge Wind Luftdruck Luftfeuchtigkeit
    00:00 -12°C° 0 mm 3 m/S 772 mmHg 60%
    01:00 -12°C° 0 mm 3 m/S 772 mmHg 61%
    02:00 -12°C° 0 mm 3 m/S 772 mmHg 61%
    03:00 -12°C° 0 mm 3 m/S 772 mmHg 62%
    04:00 -12°C° 0 mm 3 m/S 771 mmHg 63%
    05:00 -12°C° 0 mm 3 m/S 771 mmHg 63%
    06:00 -12°C° 0 mm 3 m/S 771 mmHg 63%
    07:00 -13°C° 0 mm 3 m/S 771 mmHg 63%
    08:00 -12°C° 0 mm 3 m/S 771 mmHg 59%
    09:00 -10°C° 0 mm 3 m/S 771 mmHg 54%
    10:00 -9°C° 0 mm 3 m/S 771 mmHg 50%
    11:00 -8°C° 0 mm 3 m/S 771 mmHg 46%
    12:00 -7°C° 0 mm 3 m/S 771 mmHg 42%
    13:00 -6°C° 0 mm 3 m/S 771 mmHg 39%
    14:00 -7°C° 0 mm 3 m/S 771 mmHg 42%
    15:00 -6°C° 0 mm 2 m/S 770 mmHg 44%
    16:00 -6°C° 0 mm 2 m/S 770 mmHg 47%
    17:00 -7°C° 0 mm 2 m/S 770 mmHg 50%
    18:00 -7°C° 0 mm 2 m/S 770 mmHg 53%
    19:00 -8°C° 0 mm 2 m/S 770 mmHg 57%
    20:00 -8°C° 0 mm 2 m/S 770 mmHg 58%
    21:00 -9°C° 0 mm 2 m/S 770 mmHg 60%
    22:00 -9°C° 0 mm 2 m/S 770 mmHg 61%
    23:00 -9°C° 0 mm 2 m/S 769 mmHg 62%

    23 November, Samstag

    Zeit Temperatur Niederschläge Wind Luftdruck Luftfeuchtigkeit
    00:00 -9°C° 0 mm 2 m/S 769 mmHg 62%
    01:00 -9°C° 0 mm 2 m/S 769 mmHg 63%
    02:00 -9°C° 0 mm 2 m/S 769 mmHg 63%
    03:00 -9°C° 0 mm 2 m/S 769 mmHg 63%
    04:00 -10°C° 0 mm 2 m/S 769 mmHg 63%
    05:00 -10°C° 0 mm 2 m/S 768 mmHg 64%
    06:00 -10°C° 0 mm 2 m/S 768 mmHg 64%
    07:00 -10°C° 0 mm 2 m/S 768 mmHg 64%
    08:00 -9°C° 0 mm 2 m/S 768 mmHg 59%
    09:00 -8°C° 0 mm 2 m/S 768 mmHg 55%
    10:00 -7°C° 0 mm 2 m/S 768 mmHg 50%
    11:00 -7°C° 0 mm 3 m/S 768 mmHg 47%
    12:00 -6°C° 0 mm 3 m/S 767 mmHg 43%
    13:00 -5°C° 0 mm 3 m/S 767 mmHg 40%
    14:00 -6°C° 0 mm 3 m/S 767 mmHg 42%
    15:00 -6°C° 0 mm 3 m/S 767 mmHg 44%
    16:00 -7°C° 0 mm 3 m/S 766 mmHg 47%
    17:00 -7°C° 0 mm 3 m/S 766 mmHg 49%
    18:00 -8°C° 0 mm 3 m/S 766 mmHg 52%
    19:00 -8°C° 0 mm 3 m/S 766 mmHg 55%
    20:00 -9°C° 0 mm 3 m/S 766 mmHg 57%
    21:00 -9°C° 0 mm 3 m/S 766 mmHg 59%
    22:00 -9°C° 0 mm 3 m/S 766 mmHg 60%
    23:00 -9°C° 0 mm 3 m/S 766 mmHg 62%
    Mehr zeigen